Location: Champs
(48.8539°N, 2.6040°E)
Time: 13:01:18
(UTC+00:00)

Cosmos 1025 Rocket - Pass Details

Date: 26 October 2021
Orbit: 594 x 617 km, 82.5° (Epoch: 07 December)

Event Time Altitude Azimuth Distance (km) Brightness Sun altitude
Rises 04:42:45 0° 187° (S) 2,848 6.4 -17.7°
Reaches altitude 10° 04:44:57 10° 188° (S) 1,946 5.5 -17.4°
Maximum altitude 04:49:16 89° 93° (E) 608 2.9 -16.7°
Drops below altitude 10° 04:53:35 10° 10° (N) 1,949 5.7 -15.9°
Sets 04:55:48 0° 10° (N) 2,854 6.6 -15.6°
